This is the latest recevied weather packets stored in our database for station/object KC4QLP. If no packets are shown the sender has not sent any weather packets the latest 10 day(s).
| Time | Temp. | Humidity | Pressure | Rain* | Wind** | Luminosity | Snow |
|---|---|---|---|---|---|---|---|
| 1777789815 | 3.89° C | 71% | 1008.8 hPa | 0 mm | - | 0 W/m² | - |
| 1777788015 | 3.89° C | 71% | 1009 hPa | 0 mm | - | 0 W/m² | - |
| 1777786215 | 3.89° C | 71% | 1009.2 hPa | 0 mm | - | 0 W/m² | - |
| 1777784415 | 3.89° C | 71% | 1009.5 hPa | 0 mm | - | 0 W/m² | - |
| 1777782615 | 3.89° C | 71% | 1009.9 hPa | 0 mm | - | 0 W/m² | - |
| 1777780815 | 3.89° C | 71% | 1009.9 hPa | 0 mm | - | 0 W/m² | - |
| 1777779015 | 3.89° C | 71% | 1009.9 hPa | 0 mm | - | 0 W/m² | - |
| 1777777215 | 3.89° C | 71% | 1009.7 hPa | 0 mm | - | 0 W/m² | - |
| 1777775415 | 3.89° C | 71% | 1009.6 hPa | 0 mm | - | 0 W/m² | - |
| 1777773615 | 3.89° C | 71% | 1009.6 hPa | 0 mm | - | 0 W/m² | - |
| 1777771815 | 3.89° C | 71% | 1009.5 hPa | 0 mm | - | 0 W/m² | - |
| 1777770015 | 3.89° C | 71% | 1009.5 hPa | 0 mm | - | 0 W/m² | - |
| 1777768215 | 5° C | 70% | 1009.3 hPa | 0 mm | - | 0 W/m² | - |
| 1777766415 | 6.11° C | 62% | 1009.2 hPa | 0 mm | - | 0 W/m² | - |
| 1777764615 | 7.22° C | 58% | 1009.2 hPa | 0 mm | - | 0 W/m² | - |
| 1777762815 | 7.78° C | 57% | 1009.1 hPa | 0 mm | - | 0 W/m² | - |
| 1777761020 | 8.33° C | 60% | 1009.3 hPa | 0 mm | - | 0 W/m² | - |
| 1777759215 | 8.89° C | 55% | 1009.1 hPa | 0 mm | - | 0 W/m² | - |
| 1777757415 | 8.89° C | 54% | 1009 hPa | 0 mm | - | 0 W/m² | - |
| 1777755615 | 10° C | 51% | 1009 hPa | 0 mm | - | 0 W/m² | - |
| 1777753815 | 9.44° C | 50% | 1008.9 hPa | 0 mm | - | 0 W/m² | - |
| 1777752015 | 11.11° C | 51% | 1009.2 hPa | 0 mm | - | 0 W/m² | - |
| 1777750216 | 10° C | 51% | 1009.5 hPa | 0 mm | - | 0 W/m² | - |
| 1777748416 | 9.44° C | 50% | 1009.6 hPa | 0 mm | - | 0 W/m² | - |
| 1777746615 | 10.56° C | 50% | 1009.5 hPa | 0 mm | - | 0 W/m² | - |
* Rain latest hour (hover to see other rain measurements)
** Current wind speed in m/s (hover to see current wind gust speed)